Погода Бирилюссы

Погода Бирилюссы : погода сейчас, прогноз погоды и архив. Всё, что Вы хотите узнать о погоде Бирилюссы!

Поиск расширенной информации на нашем сайте:

Другие новости

Новости СМИ2

Главная страница сайта

Новости сайта

03.07.2017

Напоминаем, что на нашем специализированном сайте Метеоцентр.Азия вы можете получить высокодетализированные автоматические прогнозы погоды по пунктам России, СНГ и мира в авиационном формате (включающие направление и скорость ветра, видимость, явления погоды, количество и форму облачности, нижнюю и верхнюю границу облачности).


Погода Бирилюссы - сегодня

Время (UTC), дата Ветер
(°,м/с) 
Видим.   Явления Облачность Т
(°С)
Тd
(°С)
f(%) Тe
(°С)
Pmin
(гПа)
dP
(гПа)
Po
(мм)
O2
(г/м3)
Тmin Tmax R s Состояние
почвы
03 19.02.18 180 (Ю) н/о    н/о 
-14.7 -16.9 83 -17  1032.9  0.1  756  324           
06 19.02.18 230 (ЮЗ) н/о    н/о 
-11.2 -15.9 68 -15  1031.4  -1.2  756  319           
09 19.02.18 240 (ЮЗ) н/о    н/о 
-10.9 -16 66 -15  1031.4  -0.1  756  318           
12 19.02.18 220 (ЮЗ) 2-5  н/о    н/о 
-13 -16.3 76 -15  1032.1  0.5  756  321    -10.4  0.6     
15 19.02.18 230 (ЮЗ) н/о    н/о 
-13.4 -16.3 79 -16  1032.2  0.5  756  322           
18 19.02.18 210 (ЮЗ) н/о    н/о 
-13.4 -14.9 88 -16  1031.9  -0.3  756  322           
21 19.02.18 210 (ЮЗ) н/о    н/о 
-12.8 -14.1 90 -15  1030.8  -1  755  320           
00 20.02.18 230 (ЮЗ) 3-7  н/о    н/о 
-12.2 -14.3 84 -16  1030.5  -0.2  755  320  -13.6    52  равномерный
сухой снег
100% 
03 20.02.18 240 (ЮЗ) н/о    н/о 
-11.9 -14.7 80 -14  1030.9  0.4  755  319           
06 20.02.18 250 (З) н/о    н/о 
-10.4 -13.4 79 -13  1030.5  -0.2  755  317           
09 20.02.18 240 (ЮЗ) н/о    н/о 
-9 -12.2 78 -11  1030.1  -0.3  755  316           
12 20.02.18 200 (Ю) 1-2  н/о    н/о 
-10.3 -11.5 91 -10  1030.1  0.1  755  317    -8.8     
15 20.02.18 210 (ЮЗ) н/о    н/о 
-11.1 -12 93 -11  1029.6  -0.6  754  318           
18 20.02.18 200 (Ю) н/о    н/о 
-10.8 -11.7 93 -11  1028.3  -1.2  753  317           
21 20.02.18 230 (ЮЗ) н/о    н/о 
-10.1 -11 93 -10  1027.5  -0.7  753  316           
00 21.02.18 тихо () -0  н/о    н/о 
-10.8 -11.5 95 -11  1027  -0.5  752  317  -11.4    55  равномерный
сухой снег
100% 
03 21.02.18 230 (ЮЗ) н/о    н/о 
-9.6 -10.7 92 -9  1026.9  752  315           
06 21.02.18 260 (З) н/о    н/о 
-8 -11.9 73 -10  1026.4  -0.4  752  313           
09 21.02.18 250 (З) н/о    н/о 
-7.6 -11.9 71 -9  1026  -0.3  752  313           
12 21.02.18 тихо () -0  н/о    н/о 
-11.7 -12.5 94 -12  1026.4  752  318    -7.1  0.6     
15 21.02.18 тихо ()   н/о    н/о 
-19.5 -20.9 89 -20  1026.5  751  328           
18 21.02.18 тихо ()   н/о    н/о 
-22 -23.7 86 -22  1026.2  -0.6  751  331           
21 21.02.18 150 (ЮВ) н/о    н/о 
-20.9 -22.6 86 -21  1025.8  -0.3  751  329           
00 22.02.18 тихо () -0  н/о    н/о 
-23.6 -25.7 83 -24  1025.2  -0.3  750  333  -23.7      55  равномерный
сухой снег
100% 
03 22.02.18 тихо ()   н/о    н/о 
-20.4 -21.9 88 -20  1023.9  -1  749  328           
Время (UTC), дата Ветер
(°,м/с) 
Видим.   Явления Облачность Т
(°С)
Тd
(°С)
f(%) Тe
(°С)
Pmin
(гПа)
dP
(гПа)
Po
(мм)
O2
(г/м3)
Тmin Tmax R s Состояние
почвы

Для получения пояснительной информации подведите курсор к названию столбца.

ПОГОДА Бирилюссы - архив

Всё, что Вы хотите узнать о погоде Бирилюссы - удобно и подробно!

Выберите нужную дату (начиная с 1 января 2015* года) и нажмите кнопку "Найти".
Будут отображены архивные сводки погоды по пункту Бирилюссы, начиная с указанной даты.


Отображать данные в формате CSV (для использования в таблицах Excel)


Внимание! Наш архив погоды предназначен исключительно для личного некоммерческого использования в познавательных целях. Если Вам необходимы официальные справки о состоянии погоды (для производственных, юридических, коммерческих и т.п. целей), обращайтесь в органы Росгидромета.

*Примечание: данная дата относится к архиву по метеостанциям СССР (Россия, СНГ, Балтия).
Архив по метеостанциям Зарубежной Европы и Азии (кроме Китая) хранится 10 дней, по другим регионам земного шара (Китай, Африка, Америка, Австралия, Океания) - 1 день.

Бирилюссы - район местоположения метеостанции


Название, широта, долгота, высота метеостанции:
Бирилюссы 57.1°ш. 90.7°д. 182 м над ур. моря [Российская Федерация]

Дополнительная информация

В oтличие oт бoльшинства пoгoдных сайтoв мы публикуем пoдрoбную метеoинфoрмацию в детальнoм прoфессиoнальнoм фoрмате.

Характеристики температуры и влажнoсти вoздуха измеряются на высoте 2 м в тени вдали oт зданий и деревьев.
Скoрoсть ветра измеряется на высoте 10 м (на урoвне рoста челoвека скoрoсть ветра ниже в 1.5-2 раза). Если метеoстанция нахoдится в гoрoде или в лесу, тo скoрoсть ветра занижена на 2-4 м/с пo сравнению с oткрытым местoм. Скoрoсть ветра над акватoриями крупных рек и oзёр, а также на вершинах хoлмoв на 2-5 м/с выше, чем в oбычных услoвиях.
Атмoсфернoе давление в разных тoчках местнoсти мoжет значительнo oтличаться oт давления на метеoстанции, в зависимoсти oт услoвий рельефа (при пoдъёме на 10 м давление пoнижается примернo на 1 мм рт.ст.).